Location: Москва
(55.7558°N, 37.6173°E)
Time: 14:55:31
(UTC+03:00)

ISS - Visible Passes

Search period start: 22 May 2019 00:00
Search period end: 01 June 2019 00:00
Orbit: 407 x 410 km, 51.6° (Epoch: 22 May)

Date Brightness Start Highest point End Pass type
(mag) Time Alt. Az. Time Alt. Az. Time Alt. Az.
22 May -3.0 00:38:13 10° W 00:41:11 30° SSW 00:41:34 29° S visible
22 May -3.2 22:11:08 10° WSW 22:14:13 37° S 22:17:19 10° ESE visible
22 May -3.2 23:47:21 10° WSW 23:50:25 35° SSW 23:51:55 23° SE visible
23 May -1.5 01:24:14 10° WSW 01:24:37 12° WSW 01:24:37 12° WSW visible
23 May -3.3 22:56:31 10° WSW 22:59:38 39° S 23:02:26 12° ESE visible
24 May -2.3 00:33:06 10° WSW 00:35:08 21° SW 00:35:08 21° SW visible
24 May -3.3 22:05:41 10° WSW 22:08:50 40° S 22:11:58 10° ESE visible
24 May -2.8 23:42:07 10° W 23:44:59 27° SSW 23:45:44 25° S visible
25 May -3.0 22:51:11 10° W 22:54:12 33° SSW 22:56:21 16° SE visible
26 May -1.6 00:28:19 10° WSW 00:29:04 12° SW 00:29:04 12° SW visible
26 May -3.2 22:00:18 10° WSW 22:03:24 37° S 22:06:29 10° ESE visible
26 May -2.2 23:37:01 10° WSW 23:39:25 19° SSW 23:39:44 19° SSW visible
27 May -2.5 22:45:55 10° WSW 22:48:40 24° SSW 22:50:25 16° SSE visible
28 May -2.8 21:54:55 10° W 21:57:52 30° SSW 22:00:49 10° SE visible
28 May -1.5 23:32:29 10° WSW 23:33:43 12° SW 23:33:49 12° SW visible
29 May -1.9 22:40:52 10° WSW 22:43:00 16° SSW 22:44:33 13° S visible
